• In Belarus
  • List of Countries
  • For 7 days
  • Water Temperature
  • Satellite Maps
  • Weather Map
  • Weather Widgets
  • user-avatar
    Login

    Hourly Weather Przyborze

    Today, 23 October, Tuesday

    Time Temperature Precipitation Wind Pressure Humidity
    00:00 +4°C° 0 mm 3 mps 756 mmHg 85%
    01:00 +4°C° 0 mm 2 mps 756 mmHg 88%
    02:00 +3°C° 0 mm 3 mps 755 mmHg 88%
    03:00 +4°C° 0 mm 4 mps 754 mmHg 87%
    04:00 +4°C° 0 mm 4 mps 753 mmHg 86%
    05:00 +3°C° 0 mm 5 mps 752 mmHg 83%
    06:00 +3°C° 0 mm 5 mps 751 mmHg 81%
    07:00 +4°C° 0 mm 6 mps 750 mmHg 79%
    08:00 +4°C° 0.2 mm 7 mps 749 mmHg 76%
    09:00 +5°C° 0.2 mm 8 mps 748 mmHg 73%
    10:00 +6°C° 0.2 mm 9 mps 747 mmHg 70%
    11:00 +6°C° 1.2 mm 9 mps 746 mmHg 73%
    12:00 +6°C° 1.2 mm 9 mps 745 mmHg 76%
    13:00 +6°C° 1.2 mm 9 mps 744 mmHg 79%
    14:00 +7°C° 0.7 mm 10 mps 743 mmHg 80%
    15:00 +7°C° 0.7 mm 10 mps 742 mmHg 81%
    16:00 +8°C° 0.7 mm 10 mps 742 mmHg 81%
    17:00 +8°C° 1.1 mm 10 mps 741 mmHg 82%
    18:00 +9°C° 1.1 mm 10 mps 741 mmHg 83%
    19:00 +9°C° 1.1 mm 10 mps 740 mmHg 83%
    20:00 +9°C° 1.1 mm 10 mps 740 mmHg 82%
    21:00 +10°C° 1.1 mm 9 mps 740 mmHg 80%
    22:00 +10°C° 1.1 mm 9 mps 740 mmHg 79%
    23:00 +10°C° 0.6 mm 9 mps 740 mmHg 78%

    Tomorrow, 24 October, Wednesday

    Time Temperature Precipitation Wind Pressure Humidity
    00:00 +10°C° 0.6 mm 9 mps 740 mmHg 77%
    01:00 +9°C° 0.6 mm 8 mps 739 mmHg 76%
    02:00 +7°C° 0.2 mm 8 mps 740 mmHg 75%
    03:00 +7°C° 0.2 mm 8 mps 740 mmHg 74%
    04:00 +6°C° 0.2 mm 8 mps 740 mmHg 74%
    05:00 +6°C° 0.1 mm 8 mps 741 mmHg 72%
    06:00 +5°C° 0.1 mm 7 mps 741 mmHg 70%
    07:00 +5°C° 0.1 mm 7 mps 742 mmHg 69%
    08:00 +5°C° 0 mm 7 mps 742 mmHg 65%
    09:00 +6°C° 0 mm 8 mps 743 mmHg 61%
    10:00 +6°C° 0 mm 8 mps 744 mmHg 57%
    11:00 +7°C° 0 mm 8 mps 744 mmHg 54%
    12:00 +7°C° 0 mm 8 mps 745 mmHg 51%
    13:00 +9°C° 0 mm 8 mps 745 mmHg 48%
    14:00 +8°C° 0 mm 7 mps 746 mmHg 48%
    15:00 +8°C° 0 mm 6 mps 746 mmHg 49%
    16:00 +8°C° 0 mm 5 mps 747 mmHg 50%
    17:00 +7°C° 0 mm 5 mps 747 mmHg 54%
    18:00 +6°C° 0 mm 5 mps 748 mmHg 58%
    19:00 +5°C° 0 mm 4 mps 748 mmHg 62%
    20:00 +5°C° 0 mm 4 mps 748 mmHg 64%
    21:00 +4°C° 0 mm 4 mps 748 mmHg 67%
    22:00 +4°C° 0 mm 4 mps 749 mmHg 69%
    23:00 +4°C° 0 mm 4 mps 748 mmHg 71%

    Day after tomorrow, 25 October, Thursday

    Time Temperature Precipitation Wind Pressure Humidity
    00:00 +5°C° 0 mm 4 mps 748 mmHg 73%
    01:00 +5°C° 0 mm 4 mps 748 mmHg 75%
    02:00 +5°C° 0.3 mm 4 mps 747 mmHg 79%
    03:00 +6°C° 0.3 mm 4 mps 746 mmHg 84%
    04:00 +6°C° 0.3 mm 5 mps 745 mmHg 88%
    05:00 +8°C° 0.3 mm 6 mps 745 mmHg 87%
    06:00 +9°C° 0.3 mm 6 mps 744 mmHg 85%
    07:00 +10°C° 0.3 mm 7 mps 744 mmHg 84%
    08:00 +10°C° 0.1 mm 7 mps 744 mmHg 83%
    09:00 +10°C° 0.1 mm 8 mps 744 mmHg 83%
    10:00 +10°C° 0.1 mm 8 mps 744 mmHg 82%
    11:00 +10°C° 0.1 mm 8 mps 743 mmHg 82%
    12:00 +10°C° 0.1 mm 8 mps 743 mmHg 81%
    13:00 +10°C° 0.1 mm 8 mps 743 mmHg 81%
    14:00 +10°C° 0.1 mm 8 mps 743 mmHg 81%
    15:00 +10°C° 0.1 mm 7 mps 743 mmHg 81%
    16:00 +10°C° 0.1 mm 7 mps 743 mmHg 81%
    17:00 +10°C° 0.1 mm 7 mps 743 mmHg 81%
    18:00 +10°C° 0.1 mm 7 mps 743 mmHg 82%
    19:00 +10°C° 0.1 mm 6 mps 744 mmHg 83%
    20:00 +10°C° 0.2 mm 6 mps 744 mmHg 82%
    21:00 +9°C° 0.2 mm 5 mps 744 mmHg 82%
    22:00 +9°C° 0.2 mm 5 mps 744 mmHg 82%
    23:00 +8°C° 0.1 mm 4 mps 744 mmHg 83%

    26 October, Friday

    Time Temperature Precipitation Wind Pressure Humidity
    00:00 +8°C° 0.1 mm 4 mps 744 mmHg 84%
    01:00 +7°C° 0.1 mm 4 mps 744 mmHg 85%
    02:00 +8°C° 0 mm 3 mps 744 mmHg 86%
    03:00 +8°C° 0 mm 3 mps 744 mmHg 88%
    04:00 +8°C° 0 mm 3 mps 743 mmHg 90%
    05:00 +8°C° 0.2 mm 3 mps 743 mmHg 90%
    06:00 +9°C° 0.2 mm 3 mps 743 mmHg 91%
    07:00 +9°C° 0.2 mm 3 mps 742 mmHg 91%
    08:00 +8°C° 0.1 mm 4 mps 742 mmHg 88%
    09:00 +10°C° 0.1 mm 4 mps 742 mmHg 85%
    10:00 +10°C° 0.1 mm 4 mps 741 mmHg 82%
    11:00 +10°C° 0 mm 5 mps 741 mmHg 79%
    12:00 +10°C° 0 mm 5 mps 740 mmHg 76%
    13:00 +12°C° 0 mm 5 mps 740 mmHg 72%
    14:00 +10°C° 0 mm 5 mps 739 mmHg 72%
    15:00 +10°C° 0 mm 5 mps 739 mmHg 71%
    16:00 +9°C° 0 mm 5 mps 738 mmHg 71%
    17:00 +9°C° 0 mm 6 mps 738 mmHg 70%
    18:00 +8°C° 0 mm 6 mps 738 mmHg 70%
    19:00 +8°C° 0 mm 6 mps 738 mmHg 70%
    20:00 +8°C° 0 mm 6 mps 738 mmHg 70%
    21:00 +8°C° 0 mm 7 mps 738 mmHg 70%
    22:00 +6°C° 0 mm 7 mps 738 mmHg 70%
    23:00 +6°C° 0 mm 7 mps 739 mmHg 70%

    27 October, Saturday

    Time Temperature Precipitation Wind Pressure Humidity
    00:00 +5°C° 0 mm 7 mps 739 mmHg 70%
    01:00 +4°C° 0 mm 7 mps 739 mmHg 71%
    02:00 +4°C° 0 mm 7 mps 740 mmHg 72%
    03:00 +4°C° 0 mm 6 mps 740 mmHg 72%
    04:00 +4°C° 0 mm 6 mps 740 mmHg 73%
    05:00 +3°C° 0 mm 6 mps 740 mmHg 74%
    06:00 +3°C° 0 mm 6 mps 741 mmHg 74%
    07:00 +3°C° 0 mm 6 mps 741 mmHg 75%
    08:00 +5°C° 0 mm 5 mps 741 mmHg 72%
    09:00 +5°C° 0 mm 5 mps 742 mmHg 70%
    10:00 +6°C° 0 mm 5 mps 742 mmHg 67%
    11:00 +6°C° 0 mm 5 mps 742 mmHg 65%
    12:00 +7°C° 0 mm 4 mps 742 mmHg 63%
    13:00 +7°C° 0 mm 4 mps 742 mmHg 61%
    14:00 +8°C° 0 mm 3 mps 742 mmHg 63%
    15:00 +8°C° 0 mm 2 mps 743 mmHg 64%
    16:00 +8°C° 0 mm 2 mps 743 mmHg 66%
    17:00 +8°C° 0 mm 1 mps 743 mmHg 69%
    18:00 +7°C° 0 mm 1 mps 744 mmHg 72%
    19:00 +7°C° 0 mm 1 mps 744 mmHg 75%
    20:00 +6°C° 0 mm 1 mps 744 mmHg 76%
    21:00 +5°C° 0 mm 0 mps 744 mmHg 78%
    22:00 +5°C° 0 mm 0 mps 744 mmHg 79%
    23:00 +5°C° 0 mm 0 mps 744 mmHg 79%

    28 October, Sunday

    Time Temperature Precipitation Wind Pressure Humidity
    00:00 +6°C° 0 mm 1 mps 745 mmHg 80%
    01:00 +6°C° 0 mm 1 mps 745 mmHg 81%
    02:00 +5°C° 0 mm 1 mps 745 mmHg 81%
    03:00 +5°C° 0 mm 1 mps 745 mmHg 82%
    04:00 +4°C° 0 mm 2 mps 745 mmHg 83%
    05:00 +4°C° 0 mm 2 mps 745 mmHg 82%
    06:00 +3°C° 0 mm 3 mps 745 mmHg 81%
    07:00 +3°C° 0 mm 3 mps 745 mmHg 81%
    08:00 +4°C° 0.1 mm 3 mps 745 mmHg 78%
    09:00 +4°C° 0.1 mm 4 mps 745 mmHg 75%
    10:00 +5°C° 0.1 mm 4 mps 745 mmHg 72%
    11:00 +5°C° 0.2 mm 4 mps 745 mmHg 71%
    12:00 +5°C° 0.2 mm 5 mps 745 mmHg 71%
    13:00 +5°C° 0.2 mm 5 mps 745 mmHg 71%
    14:00 +5°C° 0.4 mm 5 mps 745 mmHg 72%
    15:00 +3°C° 0.4 mm 5 mps 745 mmHg 74%
    16:00 +3°C° 0.4 mm 5 mps 745 mmHg 75%
    17:00 +3°C° 0.1 mm 5 mps 745 mmHg 76%
    18:00 +3°C° 0.1 mm 5 mps 745 mmHg 76%
    19:00 +2°C° 0.1 mm 5 mps 745 mmHg 77%
    20:00 +2°C° 0.1 mm 6 mps 745 mmHg 77%
    21:00 +2°C° 0.1 mm 6 mps 745 mmHg 77%
    22:00 +2°C° 0.1 mm 6 mps 744 mmHg 77%
    23:00 +2°C° 0.5 mm 6 mps 744 mmHg 77%

    29 October, Monday

    Time Temperature Precipitation Wind Pressure Humidity
    00:00 +2°C° 0.5 mm 7 mps 744 mmHg 78%
    01:00 +2°C° 0.5 mm 7 mps 743 mmHg 78%
    02:00 +2°C° 0.7 mm 7 mps 743 mmHg 79%
    03:00 +2°C° 0.7 mm 7 mps 742 mmHg 79%
    04:00 +2°C° 0.7 mm 7 mps 742 mmHg 80%
    05:00 +2°C° 0.4 mm 7 mps 742 mmHg 80%
    06:00 +2°C° 0.4 mm 7 mps 741 mmHg 80%
    07:00 +2°C° 0.4 mm 7 mps 741 mmHg 81%
    08:00 +2°C° 0.4 mm 7 mps 741 mmHg 81%
    09:00 +2°C° 0.4 mm 7 mps 741 mmHg 81%
    10:00 +1°C° 0.4 mm 8 mps 741 mmHg 80%
    11:00 +2°C° 0.9 mm 7 mps 740 mmHg 81%
    12:00 +2°C° 0.9 mm 7 mps 740 mmHg 82%
    13:00 +2°C° 0.9 mm 7 mps 740 mmHg 82%
    14:00 +2°C° 0.9 mm 7 mps 739 mmHg 83%
    15:00 0°C° 0.9 mm 7 mps 739 mmHg 84%
    16:00 +1°C° 0.9 mm 6 mps 739 mmHg 85%
    17:00 +1°C° 1 mm 6 mps 738 mmHg 86%
    18:00 +1°C° 1 mm 6 mps 738 mmHg 87%
    19:00 +1°C° 1 mm 5 mps 738 mmHg 88%
    20:00 +1°C° 0.2 mm 5 mps 738 mmHg 89%
    21:00 +1°C° 0.2 mm 5 mps 738 mmHg 90%
    22:00 +1°C° 0.2 mm 5 mps 737 mmHg 90%
    23:00 +1°C° 0.1 mm 5 mps 737 mmHg 91%
    Show more